www.pogodaiklimat.ru

Погода и климат >> Архив погоды >> Австралия >> Западная Австралия >> Лавертон


ПОГОДА в Лавертоне

  • Прогноз погоды в Лавертоне
  • Монитор погоды в Лавертоне

АРХИВ ПОГОДЫ в Лавертоне

Время (UTC), дата Ветер
(напр.,м/с)
 
Видим.   Явления Облачность Т
(С)
Тd
(С)
f
(%)
Тe
(С)
Тes
(С)
Комфортность P
(гПа)
Po
(гПа)
Тmin
(С)
Tmax
(С)
R
(мм)
R24
(мм)
S
(см)
07 11.02 ЮЗ 8 н/о н/о +40.6 0.0 8 +37 +37 очень
жарко
1004.5 953.3
09 11.02 ЮЗ 10 н/о н/о +38.9 +3.1 11 +36 +36 очень
жарко
1004.6 953.4
10 11.02 ЮЗ 9 н/о н/о +37.3 +3.1 12 +34 +34 очень
жарко
1005.1 953.9
12 11.02 Ю 4 н/о н/о +34.5 +3.1 14 +32 +32 жарко 1006.7 955.4
13 11.02 Ю 5 н/о н/о +33.2 +3.1 15 +30 +30 жарко 1007.3 956.0 +41.6
15 11.02 Ю 6 н/о н/о +30.7 +2.9 17 +28 +28 жарко 1007.8 956.4
16 11.02 Ю 4 н/о н/о +29.2 +6.0 23 +28 +28 жарко 1008.3 956.9
18 11.02 Ю 3 н/о н/о +25.6 +6.8 30 +25 +25 комфорт 1008.6 957.2
19 11.02 ЮВ 3 н/о н/о +23.7 +6.9 34 +24 +24 комфорт 1008.8 957.4
21 11.02 В 6 н/о н/о +21.5 +11.8 54 +24 +24 комфорт 1010.4 958.9
22 11.02 В 8 н/о н/о +20.5 +10.0 51 +22 +22 комфорт 1011.4 959.9
00 12.02 ЮВ 6 н/о н/о +22.9 +11.3 48 +25 +25 комфорт 1013.0 961.4
01 12.02 В 5 н/о н/о +24.4 +11.0 43 +26 +26 жарко 1013.0 961.4 +20.6
03 12.02 Ю 4 н/о н/о +27.9 +10.1 33 +28 +28 жарко 1012.6 961.0
04 12.02 Ю 6 н/о н/о +29.7 +8.2 26 +29 +29 жарко 1012.0 960.4
06 12.02 ЮЗ 7 н/о н/о +31.8 +8.7 24 +31 +31 жарко 1010.8 959.3
07 12.02 Ю 6 н/о н/о +31.5 +7.9 23 +30 +30 жарко 1010.3 958.8
09 12.02 Ю 8 н/о н/о +31.8 +8.1 23 +31 +31 жарко 1010.2 958.7
10 12.02 Ю 6 н/о н/о +30.8 +7.9 24 +30 +30 жарко 1010.6 959.1
12 12.02 Ю 4 н/о н/о +29.1 +7.7 26 +28 +28 жарко 1012.1 960.5
13 12.02 ЮВ 4 н/о н/о +28.0 +6.7 26 +27 +27 жарко 1013.0 961.4 +34.6
15 12.02 ЮВ 5 н/о н/о +25.5 +5.1 27 +25 +25 комфорт 1012.9 961.3
16 12.02 ЮВ 5 н/о н/о +24.6 +6.4 31 +25 +25 комфорт 1012.7 961.1
18 12.02 В 7 н/о н/о +22.6 +5.5 33 +23 +23 комфорт 1012.6 961.0
19 12.02 В 7 н/о н/о +21.3 +4.4 33 +22 +22 комфорт 1013.0 961.4
21 12.02 В 7 н/о н/о +18.5 +8.7 53 +18 +18 1014.2 962.5
22 12.02 В 8 н/о н/о +17.6 +9.2 58 +17 +17 1015.2 963.5
00 13.02 В 8 н/о н/о +20.7 +9.6 49 +22 +22 комфорт 1016.3 964.5
01 13.02 СВ 7 н/о н/о +22.2 +9.0 43 +24 +24 комфорт 1016.2 964.4 +17.7
03 13.02 В 5 н/о н/о +27.0 +8.9 32 +27 +27 жарко 1015.8 964.0
04 13.02 В 5 н/о н/о +28.9 +8.6 28 +28 +28 жарко 1014.7 963.0
06 13.02 СВ 4 н/о н/о +31.7 +8.0 23 +31 +31 жарко 1013.0 961.4
07 13.02 В 4 н/о н/о +31.9 +7.5 22 +31 +31 жарко 1012.2 960.6
09 13.02 Ю 2 н/о н/о +33.0 +7.1 20 +31 +31 жарко 1011.7 960.1
10 13.02 ЮВ 4 н/о н/о +32.5 +6.7 20 +31 +31 жарко 1011.8 960.2
12 13.02 В 5 н/о н/о +29.6 +5.0 21 +28 +28 жарко 1013.1 961.5
13 13.02 В 5 н/о н/о +28.3 +4.6 22 +27 +27 жарко 1013.7 962.0 +33.7
15 13.02 В 7 н/о н/о +25.4 +4.0 25 +25 +25 комфорт 1012.9 961.3
16 13.02 В 7 н/о н/о +24.4 +4.2 27 +24 +24 комфорт 1012.5 960.9
18 13.02 В 6 н/о н/о +22.8 +4.3 30 +23 +23 комфорт 1011.6 960.0
19 13.02 СВ 5 н/о н/о +22.2 +4.7 32 +22 +22 комфорт 1011.8 960.2
21 13.02 СВ 5 н/о н/о +22.0 +4.6 32 +22 +22 комфорт 1012.3 960.7
22 13.02 СВ 5 н/о н/о +22.0 +4.6 32 +22 +22 комфорт 1012.9 961.3
00 14.02 СВ 7 н/о н/о +27.4 +5.6 25 +26 +26 жарко 1014.0 962.3
01 14.02 СВ 7 н/о н/о +29.2 +5.3 22 +28 +28 жарко 1014.0 962.3 +20.2
03 14.02 СВ 4 н/о н/о +32.6 +3.5 16 +30 +30 жарко 1013.9 962.2
04 14.02 В 5 н/о н/о +33.8 +3.6 15 +31 +31 жарко 1012.9 961.3
06 14.02 В 8 н/о н/о +35.1 +1.5 12 +32 +32 жарко 1010.5 959.0
07 14.02 В 7 н/о н/о +35.9 +0.9 11 +32 +32 жарко 1009.7 958.2
09 14.02 СВ 5 н/о н/о +35.1 +1.5 12 +32 +32 жарко 1009.4 958.0
10 14.02 В 5 н/о н/о +34.8 +1.2 12 +31 +31 жарко 1010.0 958.5
12 14.02 СВ 6 н/о н/о +33.3 -1.1 11 +30 +30 жарко 1010.9 959.4
13 14.02 СВ 6 н/о н/о +32.4 -1.8 11 +29 +29 жарко 1011.7 960.1 +37.2
15 14.02 СВ 2 н/о н/о +31.6 -0.1 13 +28 +28 жарко 1013.2 961.6
16 14.02 СВ 7 н/о н/о +31.4 -0.3 13 +28 +28 жарко 1011.8 960.2
18 14.02 СВ 8 н/о н/о +29.5 +3.5 19 +27 +27 жарко 1012.4 960.8
19 14.02 СВ 6 н/о н/о +28.9 +3.0 19 +27 +27 жарко 1012.4 960.8
21 14.02 В 5 н/о н/о +27.7 +2.7 20 +26 +26 жарко 1012.8 961.2
22 14.02 СВ 7 н/о н/о +27.9 +2.2 19 +26 +26 жарко 1013.3 961.7
00 15.02 СВ 8 н/о н/о +32.0 +1.2 14 +29 +29 жарко 1014.4 962.7
01 15.02 СВ 9 н/о н/о +35.3 -0.9 10 +32 +32 жарко 1014.3 962.6 +27.1
03 15.02 С 7 н/о н/о +38.2 +1.3 10 +35 +35 очень
жарко
1013.2 961.6
04 15.02 С 6 н/о н/о +38.8 +3.1 11 +36 +36 очень
жарко
1012.3 960.7
06 15.02 СЗ 7 н/о н/о +40.5 +3.0 10 +37 +37 очень
жарко
1010.5 959.0
07 15.02 СЗ 4 н/о н/о +39.8 +2.5 10 +36 +36 очень
жарко
1009.7 958.2
09 15.02 З 7 н/о н/о +39.2 +3.4 11 +36 +36 очень
жарко
1009.4 958.0
10 15.02 Ю 5 н/о н/о +38.8 +4.3 12 +36 +36 очень
жарко
1009.9 958.4
12 15.02 штиль 0 н/о н/о +34.3 +4.9 16 +32 +32 жарко 1011.1 959.6
13 15.02 З 4 н/о н/о +32.9 +3.8 16 +30 +30 жарко 1011.6 960.0 +42.2
15 15.02 В 5 н/о н/о +33.1 +3.0 15 +30 +30 жарко 1011.6 960.0
16 15.02 СВ 7 н/о н/о +32.5 +2.5 15 +30 +30 жарко 1011.2 959.7
18 15.02 С 5 н/о н/о +30.0 +2.3 17 +28 +28 жарко 1011.0 959.5
19 15.02 С 4 н/о н/о +28.0 +2.2 19 +26 +26 жарко 1011.0 959.5
21 15.02 С 5 н/о н/о +27.5 -0.5 16 +25 +25 комфорт 1011.7 960.1
22 15.02 С 6 н/о н/о +28.8 -0.4 15 +26 +26 жарко 1012.1 960.5
00 16.02 С 9 н/о н/о +34.8 0.0 11 +31 +31 жарко 1012.6 961.0
01 16.02 С 10 н/о н/о +36.3 -0.2 10 +33 +33 жарко 1012.5 960.9 +26.7
03 16.02 СЗ 5 н/о н/о +40.1 -0.4 8 +36 +36 очень
жарко
1011.2 959.7
04 16.02 СЗ 8 н/о н/о +41.1 -1.5 7 +37 +37 очень
жарко
1010.3 958.8
06 16.02 З 7 н/о н/о +41.8 -3.1 6 +38 +38 очень
жарко
1008.6 957.2
07 16.02 З 6 н/о н/о +41.1 -1.5 7 +37 +37 очень
жарко
1007.8 956.4
09 16.02 З 6 н/о н/о +40.9 -3.7 6 +37 +37 очень
жарко
1007.2 955.9
10 16.02 ЮЗ 5 н/о н/о +39.7 -2.5 7 +36 +36 очень
жарко
1007.5 956.2
12 16.02 Ю 6 н/о н/о +36.1 +5.4 15 +33 +33 жарко 1009.2 957.8
13 16.02 Ю 7 н/о н/о +33.7 +9.7 23 +33 +33 жарко 1010.0 958.5 +42.7
15 16.02 ЮВ 7 н/о н/о +31.1 +12.0 31 +32 +32 жарко 1010.0 958.5
16 16.02 ЮВ 7 н/о н/о +29.4 +11.9 34 +30 +30 жарко 1010.0 958.5
18 16.02 ЮВ 8 н/о н/о +25.8 +10.8 39 +27 +27 жарко 1010.1 958.6
19 16.02 ЮВ 9 н/о н/о +23.9 +10.2 42 +25 +25 комфорт 1010.6 959.1
21 16.02 ЮВ 7 н/о н/о +21.3 +10.2 49 +23 +23 комфорт 1011.8 960.2
22 16.02 ЮВ 5 н/о н/о +20.3 +9.8 51 +22 +22 комфорт 1012.7 961.1
00 17.02 ЮВ 7 н/о н/о +21.3 +9.2 46 +23 +23 комфорт 1013.3 961.7
01 17.02 ЮВ 7 н/о н/о +22.8 +9.6 43 +24 +24 комфорт 1013.2 961.6 +19.9
03 17.02 ЮВ 6 н/о н/о +27.2 +10.4 35 +28 +28 жарко 1011.8 960.2
04 17.02 ЮВ 6 н/о н/о +28.4 +10.1 32 +29 +29 жарко 1010.9 959.4
06 17.02 ЮВ 6 н/о н/о +31.7 +11.0 28 +32 +32 жарко 1009.5 958.1
07 17.02 ЮВ 6 н/о н/о +31.9 +10.6 27 +32 +32 жарко 1008.7 957.3
09 17.02 ЮВ 8 н/о н/о +31.6 +10.9 28 +32 +32 жарко 1008.4 957.0
10 17.02 ЮВ 6 н/о н/о +30.8 +10.2 28 +31 +31 жарко 1008.7 957.3
12 17.02 В 7 н/о н/о +28.4 +11.5 35 +29 +29 жарко 1010.7 959.2
13 17.02 В 9 н/о н/о +27.0 +11.5 38 +28 +28 жарко 1011.0 959.5 +36.3
15 17.02 В 8 н/о н/о +24.8 +11.4 43 +26 +26 жарко 1011.0 959.5
16 17.02 ЮВ 8 н/о н/о +23.5 +11.2 46 +25 +25 комфорт 1010.8 959.3
18 17.02 ЮВ 6 н/о н/о +21.0 +10.5 51 +23 +23 комфорт 1010.9 959.4
19 17.02 В 7 н/о н/о +19.9 +9.8 52 +21 +21 комфорт 1011.3 959.8
21 17.02 В 7 н/о н/о +17.8 +9.4 58 +17 +17 1012.2 960.6
22 17.02 В 6 н/о н/о +17.3 +9.7 61 +17 +17 1012.8 961.2
00 18.02 В 7 н/о н/о +19.6 +10.3 55 +20 +20 1014.2 962.5
01 18.02 В 7 н/о н/о +21.1 +9.4 47 +22 +22 комфорт 1013.7 962.0 +17.2
03 18.02 В 5 н/о н/о +26.0 +8.5 33 +26 +26 жарко 1012.6 961.0
06 18.02 ЮВ 5 н/о н/о +32.1 +8.4 23 +31 +31 жарко 1010.4 958.9
07 18.02 ЮВ 6 н/о н/о +32.8 +7.6 21 +31 +31 жарко 1009.9 958.4

 

Местоположение метеостанции Лавертон (Западная Австралия, Австралия): широта -28.61 долгота 122.41 высота над уровнем моря 465 м.

В архиве по умолчанию представлена погода в Лавертоне за последнюю неделю. Архивные данные за месяц целиком и за предыдущие месяцы, начиная с января 2011 года, Вы можете получить, выбрав интересующий диапазон дат из раскрывающегося списка и нажав кнопку "Ввод!".


*Определитесь, кто Вы:
робот инопланетянин человек

Внимание! Время в таблицах - всемирное. Для получения местного времени необходимо прибавить поправку, которая равна 8 ч.

Смотрите также архив погоды в соседних городах и на ближайших метеорологических станциях:

Погода в Леоноре (Западная Австралия, Австралия) (110 км)
Погода в Леинстере (Западная Австралия, Австралия) (188 км)
Погода в Калгурли-Боулдере (Западная Австралия, Австралия) (259 км)
Погода в Норсмане (Западная Австралия, Австралия) (406 км)
Погода в Саутерн Кросс (Западная Австралия, Австралия) (415 км)
Погода в Микатарре (Западная Австралия, Австралия) (441 км)
Погода в Маунт Магнет (Западная Австралия, Австралия) (452 км)
Погода в Салмон Гамс (Западная Австралия, Австралия) (492 км)
Погода в Уорбертоне (Западная Австралия, Австралия) (496 км)
Погода в Эсперансе (Западная Австралия, Австралия) (567 км)

Пояснения к столбцам:

Ветер - указаны скорость ветра в м/с - средняя за 10 мин, порывы в срок и между сроками (в фигурных скобках) и направление, откуда дует ветер: С - северный, СВ - северо-восточный, В - восточный, ЮВ - юго-восточный, Ю - южный, ЮЗ - юго-западный, З - западный, СЗ - северо-западный.
Видимость - горизонтальная дальность видимости в метрах или километрах. При видимости от 1 до 10 км при отсутствии осадков обычно наблюдается дымка, при ухудшении видимости до 1 км и менее - туман. В сухую погоду видимость может ухудшаться дымом, пылью или мглою.
Явления - указаны атмосферные явления, наблюдавшиеся в срок или в последний час перед сроком; фигурными скобками обозначены явления, наблюдавшиеся между сроками (за 1-3 часа до срока); квадратными скобками обозначены град или гололедные отложения с указанием их диаметра в мм.
Облачность - указаны через наклонную черту общая и нижняя облачность в баллах и высота нижней границы облаков в метрах; квадратными скобками обозначены формы облаков: Ci - перистые, Cs - перисто-слоистые, Cc - перисто-кучевые, Ac - высококучевые, As - высокослоистые, Sc - слоисто-кучевые, Ns - слоисто-дождевые, Cu - кучевые, Cb - кучево-дождевые. Подробнее классификацию облаков см. в Атласе облаков (PDF).
T - Температура воздуха - температура, измеренная на высоте 2 м над землей.
Td - Температура точки росы - температура, при понижении до которой содержащийся в воздухе водяной пар достигнет насыщения.
f - Относительная влажность воздуха - влажноcть воздуха, измеренная на высоте 2 м над землей.
Te - Эффективная температура - температура, которую ощущает одетый по сезону человек в тени. Характеристика душности погоды. При расчете учитывается влияние влажности воздуха и скорости ветра на теплоощущения человека.
Tes - Эффективная температура на солнце - температура, которую ощущает человек, с поправкой на солнечный нагрев. Характеристика знойности погоды. Зависит от высоты солнца над горизонтом, облачности и скорости ветра. Ночью, в пасмурную погоду, а также при ветре 12 м/с и более поправка равна нулю.
P - Атмосферное давление - приведенное к уровню моря атмосферное давление.
Po - Атмосферное давление - измеренное на уровне метеостанции атмосферное давление.
Tmin - Минимальная температура - минимум температуры воздуха на высоте 2 м над землей.
Tmax - Максимальная температура - максимум температуры воздуха на высоте 2 м над землей.
R - Количество осадков - Количество выпавших осадков за период времени, мм. При наведении курсора мыши на число - период времени, за который выпало указанное количество осадков.
R24 - Количество осадков - Количество выпавших осадков за 24 часа, мм.
S - Снежный покров - Высота снежного покрова, см. При наведении курсора мыши на число - состояние снежного покрова и степень покрытия местности в баллах.